Location: Wildlife_Club
(35.6000°N, 81.4330°W)
Time: 09:41:34
(UTC-04:00)

Amateur Radio Satellites - All Passes

Search period start: 01 September 2014 09:11
Search period end: 02 September 2014 09:11
Location: Wildlife_Club, 35.6000°N, 81.4330°W

Satellite Date Start Highest point End Downlink Frequencies (MHz)
Time Altitude Azimuth
JAS-2 01 Sep 09:12:45 09:14:41 12° 297° (WNW) 09:16:40 435.800 - 435.900 CW/SSB, 435.910 FM
UKube-1 01 Sep 09:42:15 09:42:59 10° 92° (E) 09:43:43 145.840 MHz, 145.915 MHz
RS-15 01 Sep 10:12:12 10:21:47 33° 316° (NW) 10:31:21 29.354 - 29.394 USB, Beacon 29.352 USB
HO-68 01 Sep 10:21:12 10:28:19 65° 103° (ESE) 10:35:25 435.675 MHz FM
ISS 01 Sep 10:34:33 10:37:50 62° 320° (NW) 10:41:08 145.800 FM
KITSAT 1 01 Sep 10:56:28 11:02:47 26° 255° (WSW) 11:09:06 435.175 FM
UKube-1 01 Sep 11:15:14 11:19:29 56° 286° (WNW) 11:23:43 145.840 MHz, 145.915 MHz
AO-40 01 Sep 11:19:25 11:49:30 21° 211° (SSW) 11:57:10 Beacon 2401.320
Oscar 11 01 Sep 11:19:30 11:23:53 78° 284° (WNW) 11:28:13 145.825 FM, Beacon 2401.500 USB
SO-50 01 Sep 11:31:37 11:32:49 11° 43° (NE) 11:34:01 436.795 FM
FUNcube-1 01 Sep 11:49:36 11:54:11 86° 102° (ESE) 11:58:48 145.950 - 145.970 MHz USB
PANSAT 01 Sep 11:54:34 11:57:33 21° 168° (SSE) 12:00:32 not established
HO-68 01 Sep 12:10:11 12:15:23 22° 299° (WNW) 12:20:36 435.675 MHz FM
ISS 01 Sep 12:14:13 12:15:08 11° 337° (NNW) 12:16:03 145.800 FM
RS-15 01 Sep 12:34:57 12:39:12 13° 350° (N) 12:43:29 29.354 - 29.394 USB, Beacon 29.352 USB
Oscar 19 01 Sep 12:50:25 12:52:21 12° 62° (ENE) 12:54:17 437.125 CW, 437.150 USB
SO-50 01 Sep 13:09:17 13:14:07 81° 60° (ENE) 13:18:58 436.795 FM
MaSat-1 01 Sep 13:12:15 13:16:58 61° 110° (ESE) 13:22:02 437.345 MHz
UOSAT-12 01 Sep 13:22:00 13:22:59 11° 42° (NE) 13:23:59 437.025 FM, 437.400 FM
Oscar 16 01 Sep 13:22:54 13:27:10 27° 68° (ENE) 13:31:28 437.025 USB, Beacon 2401.1428
ITAMSAT 1 01 Sep 13:26:59 13:28:43 12° 62° (ENE) 13:30:28 435.822 SSB
PANSAT 01 Sep 13:33:56 13:37:17 28° 181° (S) 13:40:37 not established
Uribyol 2 01 Sep 13:35:09 13:38:05 16° 64° (ENE) 13:41:01 436.500 FM
JAS-1B 01 Sep 13:53:19 14:01:55 38° 66° (ENE) 14:09:43 435.800 - 435.900 CW/SSB
AO-27 01 Sep 13:53:57 13:57:55 23° 67° (ENE) 14:01:54 436.795 MHz FM
Oscar 19 01 Sep 14:25:51 14:31:00 75° 258° (WSW) 14:36:12 437.125 CW, 437.150 USB
Gurwin Techsat 1B 01 Sep 14:31:59 14:36:06 24° 67° (ENE) 14:40:14 435.225 FM
Oscar 10/S400 01 Sep 14:34:46 14:49:52 15° 155° (SSE) 15:00:22 145.825 - 145.975 CW/USB, Beacon 145.810 USB
AO-Echo 01 Sep 14:39:08 14:44:09 70° 75° (ENE) 14:49:01 ?
RS-15 01 Sep 14:50:59 14:58:16 19° 29° (NNE) 15:05:40 29.354 - 29.394 USB, Beacon 29.352 USB
MaSat-1 01 Sep 14:51:17 14:54:26 17° 307° (NW) 14:57:41 437.345 MHz
UOSAT-12 01 Sep 14:59:09 15:03:54 81° 60° (ENE) 15:08:32 437.025 FM, 437.400 FM
Oscar 16 01 Sep 15:01:50 15:06:22 31° 263° (W) 15:10:57 437.025 USB, Beacon 2401.1428
ITAMSAT 1 01 Sep 15:02:21 15:07:31 77° 257° (WSW) 15:12:42 435.822 SSB
Uribyol 2 01 Sep 15:11:59 15:17:02 57° 259° (W) 15:22:07 436.500 FM
PANSAT 01 Sep 15:14:09 15:16:59 19° 194° (SSW) 15:19:49 not established
TMSAT-1 01 Sep 15:21:10 15:26:14 50° 73° (ENE) 15:31:21 436.925 FM
AO-27 01 Sep 15:32:24 15:37:10 37° 262° (W) 15:41:58 436.795 MHz FM
Uosat F 01 Sep 15:35:02 15:36:37 11° 62° (ENE) 15:38:12 435.120 FM
AO-7 01 Sep 15:38:50 15:45:42 30° 60° (ENE) 15:52:33 29.400 - 29.500 MHz
Sapphire 01 Sep 15:39:54 15:40:16 10° 102° (ESE) 15:40:37 437.095 MHz 1200 baud AX-25 AFSK
JAS-1B 01 Sep 15:42:30 15:52:02 53° 260° (W) 16:00:45 435.800 - 435.900 CW/SSB
PCSat 01 Sep 16:05:04 16:09:10 22° 106° (ESE) 16:13:17 145.825 MHz
Gurwin Techsat 1B 01 Sep 16:10:54 16:15:48 38° 262° (W) 16:20:44 435.225 FM
AO-Echo 01 Sep 16:22:18 16:23:16 11° 268° (W) 16:24:14 ?
RS-15 01 Sep 17:02:27 17:13:28 62° 56° (NE) 17:24:53 29.354 - 29.394 USB, Beacon 29.352 USB
TMSAT-1 01 Sep 17:03:03 17:06:24 17° 267° (W) 17:09:46 436.925 FM
OPAL 01 Sep 17:03:42 17:07:35 21° 96° (E) 17:11:26 ?
ISS 01 Sep 17:05:51 17:09:01 39° 37° (NE) 17:12:09 145.800 FM
Uosat F 01 Sep 17:09:44 17:14:44 75° 257° (WSW) 17:19:45 435.120 FM
Sapphire 01 Sep 17:17:29 17:22:52 84° 296° (WNW) 17:28:19 437.095 MHz 1200 baud AX-25 AFSK
AO-7 01 Sep 17:29:48 17:37:58 58° 257° (WSW) 17:46:09 29.400 - 29.500 MHz
JAS-2 01 Sep 17:35:27 17:39:58 22° 68° (ENE) 17:44:10 435.800 - 435.900 CW/SSB, 435.910 FM
PCSat 01 Sep 17:47:08 17:52:15 42° 302° (WNW) 17:57:24 145.825 MHz
Hamsat 01 Sep 18:35:35 18:39:53 80° 77° (ENE) 18:44:15 145.90 MHz
OPAL 01 Sep 18:41:41 18:46:34 41° 291° (WNW) 18:51:24 ?
ISS 01 Sep 18:43:17 18:45:30 17° 232° (SW) 18:47:43 145.800 FM
STRAND 1 01 Sep 18:53:18 18:54:02 10° 91° (E) 18:54:45 ?
Sapphire 01 Sep 19:05:05 19:07:07 12° 315° (NW) 19:09:09 437.095 MHz 1200 baud AX-25 AFSK
RS-15 01 Sep 19:15:38 19:25:09 34° 254° (WSW) 19:35:03 29.354 - 29.394 USB, Beacon 29.352 USB
JAS-2 01 Sep 19:18:54 19:24:50 45° 260° (W) 19:30:11 435.800 - 435.900 CW/SSB, 435.910 FM
SO-67 01 Sep 19:39:52 19:43:15 56° 76° (ENE) 19:46:39 435.3500 MHz FM
STRAND 1 01 Sep 20:28:35 20:33:41 74° 285° (WNW) 20:38:46 ?
HO-68 01 Sep 20:46:54 20:53:14 36° 65° (ENE) 20:59:35 435.675 MHz FM
UKube-1 01 Sep 22:07:30 22:11:51 85° 77° (ENE) 22:16:12 145.840 MHz, 145.915 MHz
Oscar 11 01 Sep 22:11:25 22:15:39 55° 75° (ENE) 22:19:55 145.825 FM, Beacon 2401.500 USB
AO-40 01 Sep 22:28:34 05:03:34 48° 171° (S) 06:48:13 Beacon 2401.320
HO-68 01 Sep 22:34:15 22:40:47 39° 261° (W) 22:47:22 435.675 MHz FM
Saudisat 1A 01 Sep 22:42:23 22:46:46 87° 300° (WNW) 22:51:12 436.775 MHz
FUNcube-1 01 Sep 22:43:23 22:47:21 45° 74° (ENE) 22:51:26 145.950 - 145.970 MHz USB
MaSat-1 01 Sep 23:09:55 23:14:18 69° 65° (ENE) 23:18:02 437.345 MHz
KITSAT 1 01 Sep 23:24:26 23:32:22 64° 113° (ESE) 23:40:20 435.175 FM
Oscar 11 01 Sep 23:51:17 23:52:08 11° 269° (W) 23:52:59 145.825 FM, Beacon 2401.500 USB
FUNcube-1 02 Sep 00:22:25 00:24:00 12° 268° (W) 00:25:36 145.950 - 145.970 MHz USB
Saudisat 1A 02 Sep 00:26:43 00:27:00 10° 317° (NW) 00:27:18 436.775 MHz
PCSat 02 Sep 00:56:58 00:58:50 12° 45° (NE) 01:00:43 145.825 MHz
KITSAT 1 02 Sep 01:21:29 01:28:16 29° 312° (NW) 01:35:05 435.175 FM
Oscar 16 02 Sep 01:39:35 01:41:15 11° 91° (E) 01:42:54 437.025 USB, Beacon 2401.1428
Sapphire 02 Sep 02:08:37 02:13:45 41° 58° (ENE) 02:18:51 437.095 MHz 1200 baud AX-25 AFSK
PCSat 02 Sep 02:37:39 02:43:06 81° 63° (ENE) 02:48:30 145.825 MHz
Oscar 19 02 Sep 02:40:37 02:45:40 50° 100° (E) 02:50:40 437.125 CW, 437.150 USB
AO-Echo 02 Sep 02:49:52 02:53:49 26° 97° (E) 02:57:48 ?
Gurwin Techsat 1B 02 Sep 02:53:16 02:54:32 11° 90° (E) 02:55:49 435.225 FM
Oscar 16 02 Sep 03:15:51 03:21:02 70° 285° (WNW) 03:26:10 437.025 USB, Beacon 2401.1428
ITAMSAT 1 02 Sep 03:18:21 03:23:23 49° 100° (E) 03:28:23 435.822 SSB
SO-50 02 Sep 03:21:35 03:25:53 52° 116° (ESE) 03:30:18 436.795 FM
Uribyol 2 02 Sep 03:27:36 03:32:46 65° 102° (ESE) 03:37:56 436.500 FM
JAS-1B 02 Sep 03:33:41 03:40:02 59° 100° (E) 03:45:41 435.800 - 435.900 CW/SSB
TMSAT-1 02 Sep 03:40:33 03:44:54 26° 96° (E) 03:49:13 436.925 FM
AO-27 02 Sep 03:47:56 03:53:09 83° 284° (WNW) 03:58:20 436.795 MHz FM
Sapphire 02 Sep 03:52:41 03:56:52 23° 254° (WSW) 04:01:03 437.095 MHz 1200 baud AX-25 AFSK
OPAL 02 Sep 04:15:42 04:19:55 27° 66° (ENE) 04:24:11 ?
Oscar 19 02 Sep 04:21:11 04:24:34 18° 295° (WNW) 04:27:55 437.125 CW, 437.150 USB
PCSat 02 Sep 04:24:38 04:25:44 11° 258° (WSW) 04:26:50 145.825 MHz
AO-Echo 02 Sep 04:28:37 04:32:30 26° 291° (WNW) 04:36:24 ?
Gurwin Techsat 1B 02 Sep 04:29:41 04:35:00 75° 285° (WNW) 04:40:16 435.225 FM
ITAMSAT 1 02 Sep 04:59:01 05:02:27 18° 295° (WNW) 05:05:53 435.822 SSB
SO-50 02 Sep 05:03:52 05:06:45 17° 313° (NW) 05:09:41 436.795 FM
UOSAT-12 02 Sep 05:07:27 05:11:51 48° 115° (ESE) 05:16:22 437.025 FM, 437.400 FM
Uribyol 2 02 Sep 05:09:05 05:11:39 14° 297° (WNW) 05:14:13 436.500 FM
TMSAT-1 02 Sep 05:20:04 05:24:48 34° 290° (WNW) 05:29:31 436.925 FM
Uosat F 02 Sep 05:20:36 05:25:21 42° 99° (E) 05:30:05 435.120 FM
JAS-1B 02 Sep 05:25:53 05:29:56 18° 301° (WNW) 05:33:42 435.800 - 435.900 CW/SSB
AO-7 02 Sep 05:34:34 05:42:45 60° 104° (ESE) 05:50:52 29.400 - 29.500 MHz
OPAL 02 Sep 05:54:12 05:58:38 31° 261° (W) 06:03:10 ?
STRAND 1 02 Sep 06:05:58 06:08:04 13° 63° (ENE) 06:10:10 ?
Hamsat 02 Sep 06:25:29 06:28:26 18° 94° (E) 06:31:21 145.90 MHz
JAS-2 02 Sep 06:30:41 06:34:58 23° 97° (E) 06:39:31 435.800 - 435.900 CW/SSB, 435.910 FM
UOSAT-12 02 Sep 06:49:01 06:52:16 19° 312° (NW) 06:55:33 437.025 FM, 437.400 FM
Uosat F 02 Sep 07:00:18 07:03:48 19° 294° (WNW) 07:07:17 435.120 FM
Saudisat 1A 02 Sep 07:12:11 07:16:08 31° 54° (NE) 07:20:04 436.775 MHz
KITSAT 1 02 Sep 07:21:57 07:27:38 20° 42° (NE) 07:33:17 435.175 FM
RS-15 02 Sep 07:22:08 07:32:47 53° 111° (ESE) 07:43:12 29.354 - 29.394 USB, Beacon 29.352 USB
AO-7 02 Sep 07:28:17 07:34:57 28° 301° (WNW) 07:41:37 29.400 - 29.500 MHz
STRAND 1 02 Sep 07:41:33 07:46:37 70° 258° (WSW) 07:51:43 ?
Hamsat 02 Sep 08:00:34 08:04:26 32° 288° (WNW) 08:08:16 145.90 MHz
JAS-2 02 Sep 08:15:13 08:20:06 38° 289° (WNW) 08:25:24 435.800 - 435.900 CW/SSB, 435.910 FM
SO-67 02 Sep 08:39:18 08:42:45 75° 283° (WNW) 08:46:11 435.3500 MHz FM
Saudisat 1A 02 Sep 08:52:05 08:55:32 23° 249° (WSW) 08:58:57 436.775 MHz
